Jacob Relaes

Tarteletto - Isorex

Information
Nationality Belgium
Born18th May 1996 (25)
UCI Ranking 1722

202120202019201820172016201520142013

Cibel (Continental) UCI Ranking: 1866 Race days: 27 Distance: 4.912km
Date Pos GC Race CAT UCI
2019-09-10 10.09 33 Grote Prijs Briek Schotte KP
2019-06-26 26.06 14 Wielertrofee Jong Maar 1.2Show more
2019-06-22 22.06 DNF Heistse Pijl 1.1Show more
2019-06-21 21.06 DNF Dwars door het Hageland 1.1Show more
2019-06-16 16.06 12 Midden Brabant 1.2Show more
2019-06-11 11.06 5 Kampioneschap Waasland 1.IC1
2019-06-10 10.06 22 Ronde van Limburg 1.13Show more
2019-06-02 02.06 DNF Flèche du Sud 2.2Show more
2019-05-26 26.05 33 Grote Prijs Marcel Kint 1.1Show more
2019-05-19 19.05 14 GP Criquielion 1.2Show more
2019-05-15 15.05 8 Puivelde Koerse KP
2019-05-12 12.05 12 Flèche Ardennaise 1.2Show more
2019-05-05 05.05 7 Brenne & Montmorillonnais 1.25Show more
2019-06-30 30.06 38 CN Belgium RR CN
2019-07-09 09.07 22 Vilvoorde- Houtem KP
2019-07-19 19.07 36 Tour de Liége 2.IC
2019-07-08 08.07 36 Schaal Schoeters Beveren 1.IC1
2019-09-04 04.09 5 Wingene Koers 1.IC1
2019-05-22 22.05 63 Ruddervoorde Koerse KP
2019-09-01 01.09 17 Grote Prijs Jef Scherens 1.13Show more
2019-08-28 28.08 33 Druivenkoers Overijse 1.1Show more
2019-08-26 26.08 DNF Stadprijs Geraardsbergen KP
2019-08-15 15.08 3 - Perbais 1.12B
2019-08-22 22.08 29 GP Lucien Van Impe KP
2019-08-20 20.08 DNF Egmont Cycling Race 1.1Show more
2019-08-13 13.08 84 Heusden Koers KP
2019-07-30 30.07 6 Flobecq 1.12B
2019-07-29 29.07 12 GP Raf Jonckheere KP
2019-07-25 25.07 24 GP Pino Cerami 1.13Show more
2019-04-27 27.04 15 Driebergenprijs 1.IC1
2019-04-22 22.04 17 Hannut 1.12B
2019-04-20 20.04 18 Torhout 1.12A
2019-04-18 18.04 19 Bellegem 1.12A
2019-04-06 06.04 51 Volta Limburg Classic 1.1Show more
2019-03-31 31.03 50 GP Cholet - Pays De Loire 1.1Show more
2019-03-30 30.03 26 Classic Loire Atlantique 1.1Show more
2019-03-20 20.03 13 Esplechin - GP Dewailly 1.12B
2019-03-17 17.03 55 Omloop het Waasland KP
2019-03-13 13.03 19 Wanzeel Koerse KP
2019-03-05 05.03 DNF Le Samyn 1.1Show more
2019-03-02 02.03 11 Villers le Temple 1.12B
2019-10-15 15.10 17 Nationale Sluitingsprijs KP
2019-10-13 13.10 55 Mem. Van Steenbergen 1.1Show more
2019-10-08 08.10 DNF Binche-Chimay-Binche 1.1Show more
2019-10-06 06.10 25 Famenne Ardenne Classic 1.13Show more
2019-09-25 25.09 DNF Omloop van het Houtland 1.1Show more
2019-09-22 22.09 41 Gooikse Pijl 1.1Show more
2019-09-20 20.09 86 Kamp. van Vlaanderen 1.1Show more
2019-09-19 19.09 DNF GP Eugeen Rogeman KP
2019-09-16 16.09 26 GP Paul Borremans KP
2019-09-14 14.09 22 GP Gemeentebelangen 1.IC1
2019-07-19 19.07 28 Tour de Liége | Points 2.IC
2019-07-19 19.07 39 36 Tour de Liége | 5th stage 2.IC
2019-07-18 18.07 45 35 Tour de Liége | 4th stage 2.IC
2019-07-17 17.07 8 34 Tour de Liége | 3rd stage 2.IC
2019-07-16 16.07 34 53 Tour de Liége | 2nd stage 2.IC
2019-07-15 15.07 60 60 Tour de Liége | 1st stage 2.IC
2019-05-31 31.05 DNF Flèche du Sud | 2nd stage 2.2
2019-05-30 30.05 15 64 Flèche du Sud | 1st stage 2.2
2019-05-29 29.05 67 67 Flèche du Sud | Prologue 2.2